Tracking 19817 objects as of 18-Aug-2019
HD Live streaming from Space Station
objects crossing your sky now

BPA 1/SL-24 R/B

Track BPA 1/SL-24 R/B now!
10-day predictions


NORAD ID: 36600
Int'l Code: 2010-028C
Perigee: 720.9 km
Apogee: 1,274.3 km
Inclination: 98.3 °
Period: 104.9 minutes
Semi major axis: 7368 km
RCS: 6.6389 m2 (large)
Launch date: June 15, 2010
Source: Commonwealth of Independent States (former USSR) (CIS)
Launch site: Orenburg, Russia (OREN)

Note: This is a ROCKET BODY
aabbcc
Your satellite tracking list
Your tracking list is empty




NASA's NSSDC Master Catalog

Two Line Element Set (TLE):
1 36600U 10028C   19228.93272692 -.00000041 +00000-0 -51763-5 0  9992
2 36600 098.2703 016.0875 0375562 146.2176 326.9107 13.72539719459371
Source of the keplerian elements: AFSPC